Location: Burbank
(38.7788°N, 114.0429°W)
Time: 19:35:04
(UTC+00:00)

ISS - Visible Passes

Search period start: 10 April 2026 00:00
Search period end: 20 April 2026 00:00
Orbit: 416 x 424 km, 51.6° (Epoch: 10 April)

Date Brightness Start Highest point End Pass type
(mag) Time Alt. Az. Time Alt. Az. Time Alt. Az.
15 Apr -0.9 11:54:09 10° SSE 11:55:34 12° SE 11:57:00 10° ESE visible
17 Apr -2.6 11:54:33 13° SSW 11:57:15 38° SE 12:00:25 10° ENE visible
18 Apr -1.9 11:09:15 20° SSE 11:09:59 21° SE 11:12:37 10° E visible
19 Apr -0.7 10:23:51 11° ESE 10:23:51 11° ESE 10:24:11 10° ESE visible
19 Apr -3.6 11:56:49 18° WSW 11:59:07 65° NW 12:02:30 10° NE visible
